Location: Newark
(36.3000°N, 3.6667°E)
Time: 12:23:04
(UTC+00:00)

Hubble Space Telescope - Visible Passes

Search period start: 23 July 2019 00:00
Search period end: 02 August 2019 00:00
Orbit: 536 x 540 km, 28.5° (Epoch: 22 July)

Date Brightness Start Highest point End Pass type
(mag) Time Alt. Az. Time Alt. Az. Time Alt. Az.
26 Jul 3.2 04:07:42 10° S 04:08:50 11° SSE 04:09:59 10° SE visible
27 Jul 3.0 03:56:10 10° S 03:58:12 13° SSE 04:00:13 10° SE visible
28 Jul 2.8 03:45:23 11° SSW 03:47:33 16° SSE 03:50:04 10° SE visible
29 Jul 2.6 03:35:21 15° SSW 03:36:54 18° SSE 03:39:45 10° ESE visible
30 Jul 2.3 03:25:19 19° S 03:26:16 20° SSE 03:29:22 10° ESE visible
31 Jul 2.2 03:15:18 22° S 03:15:38 23° S 03:18:55 10° ESE visible
01 Aug 2.1 03:05:18 24° SSE 03:05:18 24° SSE 03:08:25 10° ESE visible
